Regional Weather Roundup
Issued by NWS

Home | Current Version | Previous Version | Text Only | Print | Product List | Glossary On
Versions: 1 2 3 4 5 6 7 8 9 10 11 12 13 14 15 16 17 18 19 20 21 22 23 24 25 26 27 28 29 30 31 32 33 34 35 36 37 38 39 40 41 42 43 44 45 46 47 48 49 50
465
ASUS43 KMKX 300921
RWRWI

WISCONSIN REGIONAL WEATHER ROUNDUP
NATIONAL WEATHER SERVICE MILWAUKEE/SULLIVAN WI
400 AM CDT FRI SEP 30 2016

NOTE: "FAIR" INDICATES FEW OR NO CLOUDS BELOW 12,000 FEET WITH NO
SIGNIFICANT WEATHER AND/OR OBSTRUCTIONS TO VISIBILITY.

WIZ001-002-006>008-014>016-023>028-301000-
NORTHWEST WISCONSIN

CITY           SKY/WX    TMP DP  RH WIND       PRES   REMARKS
SUPERIOR ARPT  CLOUDY    53  52  95 CALM      30.45S
ASHLAND        CLOUDY    52  51  97 CALM      30.45S
HAYWARD        CLOUDY    50  48  93 NE8       30.43S
SIREN          CLOUDY    52  51  95 NE5       30.42S
CUMBERLAND     CLEAR     46  45  93 NE3       30.41S FOG
RICE LAKE      PTCLDY    46  45  96 CALM      30.41F FOG
CHETEK         NOT AVBL
LADYSMITH      CLEAR     47  46  97 N3        30.42S
EAU CLAIRE     CLEAR     50  49  96 NE5       30.38S
MENOMONIE      CLEAR     50  49  96 N6        30.39S
NEW RICHMOND   CLEAR     49  49  99 NE5       30.39S
OSCEOLA        CLEAR     49  49 100 CALM      30.42S
$$

WIZ003>005-009-010-017-018-301000-
NORTH CENTRAL WISCONSIN

CITY           SKY/WX    TMP DP  RH WIND       PRES   REMARKS
MANITOWISH WTR NOT AVBL
ARBOR VITAE    CLEAR     49  48  96 N3        30.41S
WOODRUFF       CLEAR     49  48  96 N3        30.41S
RHINELANDER    CLEAR     46  46 100 N3        30.40F
EAGLE RIVER    CLEAR     43  43 100 CALM      30.41S FOG
LAND O LAKES   PTCLDY    47  47 100 N3        30.43F FOG
PHILLIPS       CLOUDY    47  47 100 NE6       30.41S FOG
TOMAHAWK       CLEAR     44  43  97 CALM      30.40S
MEDFORD        CLEAR    N/A N/A N/A NE6       30.38R
MERRILL        CLEAR     46  46 100 N5        30.38F
$$

WIZ029-030-035-036-043>047-301000-
CENTRAL WISCONSIN

CITY           SKY/WX    TMP DP  RH WIND       PRES   REMARKS
WAUSAU         CLEAR     50  47  89 N6        30.34F
MOSINEE        CLEAR     50  48  93 N10       30.34F
MARSHFIELD     CLEAR     52  48  86 N9        30.33F
STEVENS POINT  CLEAR     48  47  99 NE6       30.33S
WAUPACA        MOCLDY    56  53  90 N8        30.31S
WAUTOMA        CLOUDY    55  52  89 N7        30.30F
WISC RAPIDS    CLEAR     52  50  93 NE8       30.34F
CAMP DOUGLAS   CLEAR     47  46  97 NW3       30.31F
$$

WIZ011>013-019>022-031-037>040-048>050-301000-
NORTHEAST WISCONSIN

CITY           SKY/WX    TMP DP  RH WIND       PRES   REMARKS
ANTIGO         CLEAR     47  46  97 CALM      30.36F
SHAWANO        MOCLDY    56  52  87 N8        30.33F
OCONTO         NOT AVBL
STURGEON BAY   CLOUDY    59  56  89 N8        30.32S
GREEN BAY      CLOUDY    57  55  93 N12       30.30S
MANITOWOC      CLOUDY    61  55  82 NE7       30.29R
APPLETON       CLOUDY    55  54  94 N13       30.29R
CLINTONVILLE   MOCLDY    54  50  87 N7        30.31F
OSHKOSH        CLOUDY    58  55  90 N16       30.27F
$$

WIZ032>034-041-042-053>061-301000-
SOUTHWEST WISCONSIN

CITY           SKY/WX    TMP DP  RH WIND       PRES   REMARKS
LA CROSSE      CLEAR     55  52  89 NW9       30.32F
SPARTA         CLEAR     46  46 100 CALM      30.33F
VIROQUA        MOCLDY    53  51  94 N3        30.31S
BOSCOBEL       CLOUDY    60  53  77 VRB3      30.27F
PRAIRIE DU CHI PTCLDY    53  49  86 NW5       30.29S
PLATTEVILLE    PTCLDY    54  54  99 N6        30.26S
$$

WIZ056-057-062-063-064-067-068-301000-
SOUTH CENTRAL WISCONSIN

CITY           SKY/WX    TMP DP  RH WIND       PRES   REMARKS
REEDSBURG      NOT AVBL
BARABOO/DELLS  CLOUDY    56  52  84 NE8       30.28S
LONE ROCK      CLOUDY    59  53  80 N8        30.28F
MINERAL POINT  MOCLDY    55  54  94 N6        30.26S
MADISON        CLOUDY    57  55  93 N10       30.25S
MIDDLETON      CLOUDY    58  58  98 N9        30.26R
WATERTOWN      CLOUDY    60  56  89 N9        30.24R
MONROE         CLOUDY    55  54  94 N12G17    30.23S
JANESVILLE     CLOUDY    59  57  94 N10       30.21S
$$

WIZ051-052-058>065-066-070>072-301000-
SOUTHEAST WISCONSIN

CITY           SKY/WX    TMP DP  RH WIND       PRES   REMARKS
MILWAUKEE      CLOUDY    60  55  83 NE10      30.22S
WAUKESHA       DRIZZLE   55  54  94 NE10G20   30.24R
MILWAUKEE/TIMM CLOUDY    59  52  77 NE13      30.23S
RACINE         LGT RAIN  61  57  87 NE12G23   30.22S
BURLINGTON     CLOUDY    58  54  85 N9        30.20S
KENOSHA        CLOUDY    61  58  90 NE13      30.20S
FOND DU LAC    CLOUDY    59  56  89 NE14      30.27R
SHEBOYGAN      CLOUDY    61  55  81 NE16      30.26R
WEST BEND      CLOUDY    64  63  94 NE7       30.25S
JUNEAU         CLOUDY    59  55  87 N9G18     30.26S
$$

LSZ147-162-301000-
LAKE SUPERIOR

STATION/POSITION TIME  TEMP    WIND        PRES    WAVE
                       AIR SEA DIR/SP/G            HT/PER
                 (UTC) (F)     (DEG/KT/KT) (MB)    (FT/S)
W MID LAKE BUOY  0850   55 56   60/  8/ 10 1031.1F   1/ 5
DEVILS ISLAND    0900   53      40/  9/ 10 1031.8S
SAXON HARBOR     0800   53     160/  3/  6 1030.5
$$

LMZ867-665-643>646-301000-
LAKE MICHIGAN

STATION/POSITION TIME  TEMP    WIND        PRES    WAVE
                       AIR SEA DIR/SP/G            HT/PER
                 (UTC) (F)     (DEG/KT/KT) (MB)    (FT/S)
CHAMBERS ISLAND  0800   61      10/ 16/ 19 1026.4F
S GREEN BAY BUOY 0900   59 62   30/ 16/ 19 1025.6F
N MID LAKE BUOY  0850   64 65   80/ 17/ 21 1026.2S   4/ 5
NORTHPORT PIER   0800   61      10/ 10/ 11 1026.8F
SISTER BAY       0808   59      40/  5/  7   N/A
KEWAUNEE LAKESHO 0800   62      50/  9/ 14 1025.1F
SHEBOYGAN LAKESH 0900   61      30/ 17/ 18 1024.4R
PORT WASHINGTON  0800   60      40/  8/ 14 1024.7F
ATWATER BUOY     0900   57 53   30/ 10/ 14 1023.2S
MILWAUKEE LAKESH 0810   59      20/ 15/ 17   N/A
S MID LAKE BUOY  0850   63 68   60/ 19/ 21 1021.3S   5/ 6
KENOSHA   LAKESH 0900   62      50/ 19/ 23 1022.0S
$$

TC  - TEMPERATURE IN CELSIUS
VSB - VISIBILITY IN STATUTE MILES
WCI - WIND CHILL INDEX
HX  - HEAT INDEX





USA.gov is the U.S. government's official web portal to all federal, state and local government web resources and services.